Voltar ao catálogo

COSMOS 2251 DEB

AtivoLEO
NORAD 34857·DEBRIS·🇷🇺 Russia

Lançado Jun 16, 1993 de Plesetsk Cosmodrome

Loading…

Próximas Passagens (próximas 24 horas)

TLE

AtualizadoSource: Space-Track

Época: Sep 14, 2026, 13:49 UTC

1 34857U 93036ACB 26257.57583334  .00001752  00000-0  35532-3 0  9994
2 34857  74.0130 299.7758 0064857 353.1810 158.3532 14.60696511919265

Acompanhe COSMOS 2251 DEB em tempo real com AllMySat

Download on the App Store